[[{"header":{"parameterUnit":"m.s-1","parameterCategory":1,"la1":30.2991,"la2":30.254,"lo1":-89.0895,"lo2":-89.0444,"dy":0.0017,"dx":0.0017,"nx":28,"ny":28,"refTime":"2025-04-25T21:00:00:Z","depth":0,"parameterNumber":2,"parameterNumberName":"U-component_of_WINDS"},"data":[0,0,0,0,0,0,0,0,0,0,0,0,0,0,0,0,0,0,0,0,0,0,0,0,0,0,0,0,0,0,0,0,0,0,0,0,0,0,0,0,0,0,0,0,0,0,0,0,0,0,0,0,0,0,0,0,0,0,0.2737,0.2738,0,0.2843,0.2844,0.2845,0.2872,0.2871,0.2871,0.287,0.2979,0.2983,0.2986,0,0,0,0,0,0,0,0,0,0,0,0,0,0.256,0.2563,0.2737,0.2739,0.274,0.2843,0.2844,0.2846,0.2872,0.2871,0.2871,0.287,0.2978,0.2982,0.2987,0,0,0,0,0,0,0,0,0,0,0,0,0,0.2648,0.2564,0.2737,0.2766,0.2769,0.2842,0.2844,0.2846,0.2872,0.2871,0.287,0.2869,0.2977,0.2982,0.2987,0.304,0,0,0.3003,0.3006,0,0,0,0,0,0,0,0,0.2643,0.2655,0.276,0.2764,0.2768,0.2843,0.2822,0.2911,0.2873,0.2833,0.287,0.2869,0.2935,0.2944,0.2966,0.3045,0.305,0.3004,0.3007,0.3009,0.3011,0,0,0,0,0,0,0,0.2637,0.2651,0.2779,0.2762,0.2766,0.2774,0.2785,0.2839,0.2888,0.2837,0.2839,0.2851,0.2937,0.296,0.2968,0.3051,0.3004,0.3008,0.3012,0.3014,0.318,0.3181,0,0,0,0,0,0,0.2626,0.2645,0.2776,0.2782,0.2702,0.2778,0.279,0.282,0.2888,0.2897,0.2852,0.2852,0.2952,0.2962,0.2972,0.3039,0.3009,0.3014,0.3017,0.3179,0.318,0.3182,0,0,0,0,0,0,0.2622,0.2637,0.2771,0.2714,0.2732,0.2782,0.2815,0.2823,0.2846,0.2899,0.2908,0.2867,0.2952,0.2965,0.3023,0.3043,0.3017,0.3021,0.3177,0.3179,0.3181,0.3172,0,0,0,0,0,0,0.2617,0.2636,0.2656,0.2715,0.2735,0.282,0.2816,0.2826,0.2855,0.2856,0.2916,0.2925,0.2952,0.3015,0.3028,0.305,0.3026,0.3176,0.3178,0.318,0.3171,0.3174,0.3176,0,0,0,0,0,0.261,0.2649,0.2657,0.2672,0.2761,0.2821,0.2833,0.2863,0.2857,0.2878,0.2912,0.2923,0.3039,0.3021,0.3036,0.306,0.3175,0.3178,0.318,0.317,0.3173,0.3176,0,0,0,0,0,0,0.2592,0.2657,0.2667,0.2725,0.2767,0.2825,0.2853,0.2865,0.291,0.2909,0.2945,0.2959,0.3014,0.3043,0.3021,0.3115,0.3107,0.3113,0.3094,0.3097,0.31,0.3092,0.303,0,0,0,0,0,0.2594,0.2637,0.2693,0.2739,0.276,0.2803,0.283,0.285,0.2895,0.2912,0.2951,0.2994,0.3041,0.3071,0.3116,0.3175,0.3189,0.3199,0.3202,0.3203,0.3208,0.3242,0.3248,0.3191,0.3191,0.3191,0,0,0.26,0.2642,0.2666,0.2736,0.2771,0.2815,0.2817,0.2863,0.2897,0.292,0.2977,0.3007,0.3058,0.3117,0.3145,0.3142,0.3227,0.3207,0.3208,0.3212,0.3246,0.3251,0.3256,0.3193,0.3192,0.3192,0,0,0.2634,0.2669,0.2712,0.2747,0.28,0.2828,0.2839,0.2895,0.2916,0.2974,0.2992,0.3032,0.3111,0.3147,0.3176,0.3224,0.3235,0.3238,0.325,0.3283,0.3287,0.3292,0.3309,0.3315,0.3242,0.3242,0.3242,0,0.2635,0.2701,0.2733,0.2779,0.2809,0.2832,0.2876,0.2909,0.2974,0.2994,0.2991,0.3091,0.3127,0.3195,0.3207,0.3229,0.3242,0.3231,0.3284,0.3289,0.3293,0.331,0.3317,0.3242,0.3242,0.3242,0.3242,0,0.27,0.2746,0.2775,0.2837,0.2871,0.2915,0.2954,0.2985,0.3002,0.3031,0.309,0.3134,0.3189,0.3207,0.3224,0.3277,0.3274,0.3277,0.327,0.3298,0.3314,0.3321,0.3242,0.3242,0.3242,0.3242,0,0,0.2724,0.2804,0.2814,0.2842,0.2903,0.2939,0.2985,0.3039,0.3065,0.3109,0.3149,0.3216,0.3219,0.3251,0.3273,0.3301,0.3337,0.3301,0.3303,0.3306,0.3399,0.3397,0.3404,0.3345,0.3347,0.3348,0.3395,0,0.2765,0.2848,0.2878,0.2946,0.299,0.3012,0.3053,0.3094,0.3123,0.3164,0.3196,0.3242,0.3243,0.3262,0.3292,0.3326,0.3356,0.3323,0.3383,0.3385,0.3369,0.3413,0.341,0.3453,0.3402,0.3403,0.3404,0,0.2824,0.2869,0.2941,0.2997,0.3017,0.3052,0.3104,0.3143,0.3191,0.321,0.3247,0.3266,0.3316,0.3306,0.3375,0.3352,0.3378,0.3399,0.3402,0.3408,0.3396,0.3421,0.3467,0.3473,0.3414,0.3414,0.3413,0,0.2834,0.2913,0.2967,0.2991,0.3057,0.3082,0.3111,0.3158,0.3188,0.3234,0.3255,0.3306,0.3334,0.3373,0.3406,0.3395,0.3472,0.3465,0.349,0.3489,0.3505,0.3503,0.3556,0.3521,0.3521,0.3521,0.3521,0,0.2877,0.2921,0.2973,0.3006,0.3056,0.309,0.3139,0.3169,0.3211,0.325,0.3273,0.331,0.3352,0.3394,0.342,0.3474,0.3486,0.3503,0.351,0.3501,0.3499,0.3519,0.3517,0.3523,0.3522,0.3522,0.3522,0,0.2897,0.2934,0.2994,0.3052,0.3068,0.3102,0.3152,0.3185,0.3215,0.3265,0.3278,0.3325,0.3376,0.3413,0.3479,0.3497,0.3554,0.3561,0.3538,0.3541,0.3564,0.3561,0.3631,0.3642,0.36,0.36,0.3601,0,0.2922,0.2956,0.3018,0.3046,0.3075,0.312,0.3151,0.3187,0.3219,0.3277,0.3303,0.3356,0.34,0.3481,0.3521,0.3572,0.358,0.3601,0.3587,0.3578,0.358,0.3578,0.3581,0.3602,0.3603,0.3603,0.3603,0,0.2962,0.2978,0.3023,0.3074,0.3111,0.3154,0.3196,0.3218,0.3261,0.3296,0.3349,0.3383,0.3451,0.3503,0.3558,0.3588,0.3603,0.3607,0.3615,0.3607,0.3593,0.3601,0.3543,0.3605,0.3605,0.3605,0.3605,0.3605,0.2985,0.3017,0.3065,0.3115,0.315,0.319,0.3224,0.3258,0.3303,0.336,0.3379,0.3434,0.3482,0.3557,0.3588,0.3631,0.363,0.3642,0.3646,0.3648,0.3648,0.3586,0.3641,0.3641,0.3641,0.3641,0.3641,0,0.3026,0.3059,0.3104,0.3163,0.3202,0.3213,0.3261,0.3292,0.334,0.3384,0.3427,0.3487,0.3538,0.3583,0.3636,0.3662,0.367,0.3675,0.3673,0.368,0.3645,0.3633,0.3667,0.3667,0.3667,0.3667,0.3667,0.3667,0.3052,0.3107,0.3129,0.3202,0.3235,0.3288,0.3315,0.3351,0.3386,0.3453,0.3496,0.3524,0.3568,0.3625,0.3672,0.3684,0.3702,0.3705,0.3718,0.3685,0.3682,0.3679,0.3668,0.3709,0.3709,0.375,0.375,0.375]},{"header":{"parameterUnit":"m.s-1","parameterCategory":1,"la1":30.2991,"la2":30.254,"lo1":-89.0895,"lo2":-89.0444,"dy":0.0017,"dx":0.0017,"nx":28,"ny":28,"refTime":"2025-04-25T21:00:00:Z","depth":0,"parameterNumber":3,"parameterNumberName":"V-component_of_WINDS"},"data":[0,0,0,0,0,0,0,0,0,0,0,0,0,0,0,0,0,0,0,0,0,0,0,0,0,0,0,0,0,0,0,0,0,0,0,0,0,0,0,0,0,0,0,0,0,0,0,0,0,0,0,0,0,0,0,0,0,0,1.2039,1.2039,0,1.2032,1.2032,1.2032,1.2047,1.2047,1.2048,1.2048,1.2042,1.2041,1.204,0,0,0,0,0,0,0,0,0,0,0,0,0,1.2064,1.2063,1.2039,1.2039,1.2039,1.2032,1.2032,1.2032,1.2047,1.2047,1.2048,1.2048,1.2042,1.2041,1.204,0,0,0,0,0,0,0,0,0,0,0,0,0,1.2055,1.2063,1.2039,1.2045,1.2046,1.2032,1.2032,1.2032,1.2047,1.2047,1.2048,1.2049,1.2042,1.2041,1.204,1.202,0,0,1.2037,1.2037,0,0,0,0,0,0,0,0,1.2055,1.2054,1.2044,1.2045,1.2045,1.2041,1.2038,1.2028,1.2046,1.2046,1.2048,1.2049,1.2041,1.204,1.2037,1.202,1.2019,1.2037,1.2037,1.2036,1.2036,0,0,0,0,0,0,0,1.2056,1.2054,1.2036,1.2044,1.2045,1.2048,1.2048,1.2036,1.204,1.2046,1.2047,1.2046,1.2041,1.2038,1.2037,1.2019,1.2037,1.2037,1.2036,1.2036,1.1982,1.1982,0,0,0,0,0,0,1.2056,1.2055,1.2036,1.2036,1.2052,1.2047,1.2047,1.2042,1.204,1.204,1.2046,1.2047,1.2039,1.2038,1.2037,1.2011,1.2036,1.2035,1.2035,1.1983,1.1982,1.1981,0,0,0,0,0,0,1.2056,1.2054,1.2037,1.2046,1.2044,1.2046,1.204,1.2041,1.2038,1.2039,1.204,1.2042,1.204,1.2038,1.2024,1.2011,1.2035,1.2034,1.1984,1.1983,1.1982,1.1961,0,0,0,0,0,0,1.2057,1.2054,1.2047,1.2045,1.2043,1.2024,1.204,1.2041,1.2036,1.2038,1.2036,1.2036,1.204,1.2025,1.2023,1.2011,1.2033,1.1985,1.1984,1.1982,1.1963,1.1959,1.1956,0,0,0,0,0,1.2058,1.2042,1.2046,1.2044,1.2034,1.2023,1.2022,1.2026,1.2035,1.2027,1.2028,1.2036,1.2013,1.2023,1.2021,1.2008,1.1986,1.1984,1.1982,1.1964,1.196,1.1956,0,0,0,0,0,0,1.2042,1.2042,1.2047,1.203,1.2026,1.2025,1.2016,1.2022,1.2016,1.2018,1.2024,1.2023,1.2007,1.2006,1.2017,1.1987,1.2001,1.1999,1.1988,1.1984,1.1981,1.1981,1.2033,0,0,0,0,0,1.2037,1.2028,1.2028,1.2013,1.2011,1.2014,1.2009,1.2013,1.2009,1.2008,1.2008,1.2004,1.1996,1.199,1.1983,1.1963,1.1962,1.1953,1.195,1.1947,1.1944,1.1932,1.1927,1.1975,1.1975,1.1975,0,0,1.2026,1.2024,1.2018,1.201,1.2007,1.1997,1.2012,1.2002,1.1994,1.2007,1.1992,1.1991,1.1988,1.1969,1.1962,1.1969,1.1931,1.1945,1.1942,1.1941,1.1929,1.1925,1.1921,1.1974,1.1974,1.1974,0,0,1.2,1.1998,1.1985,1.1982,1.1978,1.1979,1.1976,1.1974,1.1974,1.1959,1.1967,1.1959,1.1945,1.1941,1.1937,1.1908,1.1915,1.1905,1.1888,1.1875,1.1871,1.1868,1.1856,1.1851,1.1903,1.1903,1.1903,0,1.1986,1.1972,1.1977,1.1965,1.196,1.1971,1.1956,1.1953,1.1947,1.1943,1.1951,1.1932,1.1931,1.1911,1.1903,1.1901,1.1896,1.1905,1.1872,1.1868,1.1865,1.1853,1.1849,1.1902,1.1902,1.1902,1.1902,0,1.1954,1.1944,1.1933,1.1926,1.192,1.1907,1.191,1.1903,1.1907,1.1908,1.1892,1.189,1.1881,1.1877,1.1882,1.1858,1.1862,1.1871,1.1884,1.1859,1.1848,1.1844,1.19,1.1901,1.1901,1.1901,0,0,1.1919,1.1913,1.1909,1.1905,1.19,1.1892,1.1879,1.187,1.1863,1.1859,1.1847,1.1834,1.1841,1.1837,1.1841,1.1831,1.1805,1.184,1.184,1.1832,1.1776,1.1768,1.1763,1.181,1.1809,1.1808,1.1775,0,1.1891,1.1868,1.1872,1.1849,1.1839,1.1848,1.1836,1.1831,1.1831,1.1822,1.1822,1.1812,1.1824,1.1821,1.1811,1.181,1.1793,1.1813,1.1797,1.1797,1.1796,1.1757,1.1749,1.1718,1.1771,1.1771,1.177,0,1.1857,1.1849,1.1825,1.182,1.1816,1.1805,1.1796,1.1788,1.1782,1.1783,1.1777,1.1783,1.1768,1.1783,1.1763,1.1776,1.177,1.1768,1.1767,1.1765,1.1781,1.1752,1.1709,1.1704,1.1764,1.1764,1.1765,0,1.183,1.1815,1.1798,1.1794,1.1789,1.1781,1.1778,1.1773,1.1767,1.1759,1.1755,1.1746,1.1741,1.1733,1.1735,1.1746,1.1714,1.1729,1.1713,1.1713,1.1705,1.1705,1.1658,1.1704,1.1704,1.1704,1.1704,0,1.1799,1.1783,1.1785,1.1775,1.1757,1.1761,1.1744,1.1742,1.1738,1.1726,1.1734,1.1723,1.1728,1.1717,1.1719,1.1701,1.1699,1.1698,1.1698,1.1696,1.1696,1.1691,1.1693,1.1703,1.1703,1.1703,1.1703,0,1.1766,1.1768,1.1749,1.1745,1.1743,1.173,1.1726,1.1716,1.1716,1.1701,1.1698,1.1698,1.1686,1.1688,1.1674,1.1676,1.1652,1.1656,1.1653,1.1654,1.1636,1.1637,1.1584,1.1576,1.1628,1.1628,1.1627,0,1.1745,1.1733,1.1727,1.172,1.1716,1.1705,1.1698,1.1701,1.1694,1.1686,1.1676,1.1664,1.1654,1.1634,1.1632,1.1621,1.1624,1.1606,1.1623,1.162,1.1621,1.1621,1.1619,1.1602,1.1602,1.1601,1.1601,0,1.1707,1.1708,1.1698,1.1687,1.1678,1.167,1.1663,1.1656,1.1659,1.165,1.1637,1.1629,1.1614,1.1602,1.1591,1.1588,1.1594,1.1596,1.1591,1.1588,1.1586,1.1585,1.1643,1.1597,1.1597,1.1598,1.1598,1.1598,1.1678,1.1667,1.1661,1.1648,1.1643,1.1635,1.1625,1.1623,1.1612,1.16,1.1602,1.1587,1.158,1.1567,1.1562,1.155,1.1556,1.155,1.1548,1.1546,1.1543,1.1589,1.1548,1.1549,1.1549,1.1549,1.1549,0,1.1639,1.1635,1.1623,1.1612,1.1602,1.1609,1.16,1.1591,1.1577,1.1571,1.1561,1.1544,1.1532,1.1529,1.1517,1.1507,1.151,1.1504,1.1504,1.1502,1.1539,1.1543,1.1502,1.1502,1.1502,1.1502,1.1502,1.1502,1.1617,1.1598,1.1597,1.1575,1.1571,1.1555,1.155,1.1542,1.1537,1.1518,1.1507,1.1505,1.1499,1.1487,1.1475,1.1474,1.1469,1.1461,1.1462,1.1495,1.15,1.1505,1.1509,1.146,1.146,1.1426,1.1425,1.1425]}]]